Regional Weather Roundup
Issued by NWS

Home | Current Version | Previous Version | Graphics & Text | Print | Product List | Glossary On
Versions: 1 2 3 4 5 6 7 8 9 10 11 12 13 14 15 16 17 18 19 20 21 22 23 24 25 26 27 28 29 30 31 32 33 34 35 36 37 38 39 40 41 42 43 44 45 46 47 48 49 50
000
ASUS45 KPSR 310510
RWRAZ

ARIZONA HOURLY REGIONAL WEATHER ROUNDUP
NATIONAL WEATHER SERVICE PHOENIX AZ
1000 PM MST SUN AUG 30 2015

NOTE: FAIR INDICATES FEW OR NO CLOUDS BELOW 12,000 FEET WITH NO
SIGNIFICANT WEATHER AND/OR OBSTRUCTIONS TO VISIBILITY.

AZZ001>003-036-310600-
NORTHWEST ARIZONA

CITY           SKY/WX    TMP DP  RH WIND       PRES   REMARKS
BULLHEAD CITY  MOCLDY   100  37  11 SE13      29.69S
KINGMAN        PTCLDY    79  43  27 S6        29.94R
$$

AZZ004>008-015-016-018-310600-
NORTH CENTRAL ARIZONA

CITY           SKY/WX    TMP DP  RH WIND       PRES   REMARKS
GRAND CANYON     N/A    N/A N/A N/A MISG      30.24R
WILLIAMS       MOCLDY    61  55  82 E7        30.28F
PRESCOTT       PTCLDY    74  56  53 W12G23    30.10R
FLAGSTAFF      CLOUDY    58  56  93 NE7       30.28S
PAYSON         PTCLDY    75  54  46 CALM      30.13F
PAGE           CLOUDY    68  64  87 SE16      30.07F
$$

AZZ009>014-017-310600-
NORTHEAST ARIZONA

CITY           SKY/WX    TMP DP  RH WIND       PRES   REMARKS
WINSLOW        LGT RAIN  68  62  81 NW14      30.16R
SAINT JOHNS    PTCLDY    66  54  65 CALM      30.17S
WINDOW ROCK    CLOUDY    61  52  72 E3        30.25F
SHOW LOW       MOCLDY    63  50  63 W14       30.25R
$$

AZZ023-310600-
GREATER PHOENIX AREA

CITY           SKY/WX    TMP DP  RH WIND       PRES   REMARKS
PHOENIX        MOCLDY    91  64  40 S7        29.78R
BUCKEYE          N/A     90  63  40 SE10      29.78R
LUKE AFB       CLEAR     94  64  36 SW3       29.77R
DEER VALLEY    MOCLDY    94  59  31 S9        29.80R
SCOTTSDALE     MOCLDY    93  60  33 S9        29.83R
MESA-GATEWAY   MOCLDY    86  66  51 S12       29.86R
$$

AZZ027-028-310600-
SOUTHWEST MARICOPA COUNTY AND PINAL COUNTY

CITY           SKY/WX    TMP DP  RH WIND       PRES   REMARKS
CASA GRANDE    CLOUDY    88  63  42 CALM      29.83S
GILA BEND      FAIR      94  62  33 SE16      29.76R
$$

AZZ503-504-507>509-310600-
SOUTHEAST ARIZONA

CITY           SKY/WX    TMP DP  RH WIND       PRES   REMARKS
TUCSON         CLOUDY    83  60  45 SE8       29.96R
DAVIS-MONTHAN  MOCLDY    82  62  50 SE8       29.95R
NOGALES        CLOUDY    68  65  90 CALM      30.06
SIERRA VISTA   CLOUDY    71  59  64 NW3       30.11R
DOUGLAS        CLOUDY    68  63  84 CALM      30.06F
SAFFORD        MOCLDY    85  56  37 E7        29.95S
$$

AZZ020-021-025-026-031-310600-
SOUTHWEST ARIZONA

CITY           SKY/WX    TMP DP  RH WIND       PRES   REMARKS
YUMA           CLEAR     97  48  18 W9        29.71R
$$

CAZ031-033-041-043-047-048-061-310600-
SOUTHERN CALIFORNIA

CITY           SKY/WX    TMP DP  RH WIND       PRES   REMARKS
DOWNTOWN L.A.  PTCLDY    72  62  71 CALM      29.84R
L.A. AIRPORT   PTCLDY    72  65  78 W7        29.84S
SAN DIEGO      MOCLDY    72  63  73 NW6       29.89R
BURBANK        PTCLDY    76  60  57 SE7       29.85R
ONTARIO        PTCLDY    75  61  61 W6        29.87R
RIVERSIDE      CLEAR     76  61  59 CALM      29.87R
PALM SPRINGS   CLEAR     94  53  25 NW17      29.71R
EL CENTRO NAS  PTCLDY    94  44  17 W21       29.71F
IMPERIAL       PTCLDY    93  47  20 W14       29.69S
BLYTHE         MOCLDY    97  52  21 W10       29.70R
NEEDLES        MOCLDY   101  33   9 SW21      29.71R
$$

NVZ020-UTZ003-310600-
SOUTHERN NEVADA-UTAH

CITY           SKY/WX    TMP DP  RH WIND       PRES   REMARKS
LAS VEGAS      PTCLDY    92  39  15 SW5       29.75S
SALT LAKE CITY PTCLDY    74  46  36 S8        29.95R
$$

NMZ009-TXZ055-310600-
NEW MEXICO-WEST TEXAS

CITY           SKY/WX    TMP DP  RH WIND       PRES   REMARKS
ALBUQUERQUE    PTCLDY    78  45  30 E7        30.12S
EL PASO        CLEAR     80  47  31 SE7       30.04S
$$


........................KEY........................
SKY/WX - SKY CONDITION/WEATHER
TMP    - TEMPERATURE IN FAHRENHEIT
DP     - DEW POINT IN FAHRENHEIT
RH     - RELATIVE HUMIDITY IN PERCENT
WIND   - DIRECTION AND SPEED IN MILES PER HOUR (MPH)
VRB    - VARIABLE WIND DIRECTION
PRES   - MEAN SEA LEVEL PRESSURE IN INCHES OF MERCURY
         F - FALLING PRESSURE   R - RISING PRESSURE
         S - STEADY PRESSURE
VSB    - VISIBILITY IN MILES
HX     - HEAT INDEX IN FAHRENHEIT
WCI    - WIND CHILL INDEX IN FAHRENHEIT
TC     - TEMPERATURE IN CELSIUS WHICH IS ALSO KNOWN AS
         TEMPERATURE IN CENTIGRADE
AFB    - AIR FORCE BASE
         LUKE AFB IS LUKE AIR FORCE BASE
         DAVIS-MONTHAN IS DAVIS-MONTHAN AIR FORCE BASE
NAS    - NAVAL AIR STATION
         EL CENTRO NAS IS EL CENTRO NAVAL AIR STATION
N/A    - NOT AVAILABLE




USA.gov is the U.S. government's official web portal to all federal, state and local government web resources and services.